Flag for Turkmenistan Weather past 2 weeks in Ashgabat, Turkmenistan

Now
75 °F

Passing clouds.


Feels Like: 76 °F
Forecast: 66 / 91 °F
Wind: 13 mph from Southeast

Location: Ashgabat

Current Time: May 26, 2015 at 1:16:56 AM

Latest Report: May 26, 2015 at 12:00 AM


Visibility: N/A

Pressure: 29.89 "Hg

Humidity: 19%

Dew point: 30 °F

Location of AshgabatLocation

Historic Weather in Ashgabat — Graph

°F

Ashgabat temperature yesterday

Maximum temperature yesterday: 86 °F (at 2:30 PM)
Minimum temperature yesterday: 61 °F (at 6:00 AM)
Average temperature yesterday: 77 °F

Past Weeks' High & Low Weather Summary

 TemperatureHumidityPressure
High99 °F (May 14, 5:00 PM)100% (May 16, 4:00 AM)30.09 "Hg (May 16, 4:00 AM)
Low46 °F (May 16, 4:00 AM)11% (May 25, 3:30 PM)29.77 "Hg (May 14, 3:00 AM)
Average78 °F34%29.95 "Hg
* Reported Midnight between May 10 and May 11 — Midnight between May 25 and May 26, Ashgabat, Weather by CustomWeather, © 2015

Note: Actual official high and low records may vary slightly from our data, if they occured in-between our weather recording intervals... More about our weather records

Advertising

Ashgabat weather history for previous 24 hours

 ConditionsComfort  
Time TempWeatherWind HumidityBarometerVisibility
12:00 AM
Tue, May 26
75 °FPassing clouds.13 mph19%29.89 "HgN/A
11:00 PM
Mon, May 25
77 °FPartly cloudy.13 mph19%29.92 "HgN/A
10:30 PM75 °FPartly cloudy.13 mph21%29.92 "HgN/A
10:00 PM77 °FPartly cloudy.10 mph19%29.92 "HgN/A
9:30 PM77 °FMostly cloudy.13 mph19%29.92 "HgN/A
9:00 PM79 °FMostly cloudy.15 mph17%29.92 "HgN/A
8:30 PM81 °FMore clouds than sun.15 mph15%29.92 "HgN/A
8:00 PM81 °FMore clouds than sun.15 mph15%29.92 "HgN/A
7:00 PM84 °FSunny.20 mph11%29.89 "HgN/A
6:30 PM86 °FSunny.17 mph11%29.89 "HgN/A
6:00 PM86 °FSunny.22 mph11%29.89 "HgN/A
5:30 PM86 °FSunny.22 mph11%29.89 "HgN/A
5:00 PM86 °FSunny.24 mph11%29.89 "HgN/A
4:30 PM86 °FSunny.26 mph11%29.89 "Hg3 mi
4:00 PM86 °FSunny.24 mph11%29.89 "Hg3 mi
3:30 PM86 °FSunny.22 mph11%29.89 "Hg3 mi
3:00 PM86 °FSunny.22 mph12%29.92 "Hg3 mi
2:30 PM86 °FSunny.24 mph12%29.92 "Hg3 mi
2:00 PM84 °FSunny.22 mph13%29.92 "Hg3 mi
1:30 PM84 °FSunny.22 mph13%29.95 "Hg3 mi
1:00 PM84 °FSunny.22 mph13%29.95 "Hg4 mi
12:30 PM82 °FSunny.22 mph15%29.95 "Hg3 mi
12:00 PM81 °FSunny.22 mph15%29.95 "Hg3 mi
11:00 AM77 °FSunny.17 mph21%29.98 "HgN/A
10:00 AM75 °FPassing clouds.13 mph24%29.98 "HgN/A
9:00 AM70 °FScattered clouds.15 mph27%29.98 "HgN/A
8:00 AM66 °FScattered clouds.8 mph30%29.98 "HgN/A
7:00 AM63 °FScattered clouds.6 mph34%29.98 "HgN/A
6:00 AM61 °FPassing clouds.10 mph34%29.98 "HgN/A
5:00 AM63 °FPassing clouds.13 mph32%29.98 "HgN/A
4:00 AM66 °FClear.13 mph26%29.98 "HgN/A
3:00 AM68 °FPassing clouds.17 mph24%30.01 "HgN/A
2:00 AM68 °FPassing clouds.15 mph24%30.01 "HgN/A
1:00 AM68 °FPassing clouds.15 mph24%30.04 "HgN/A
Weather by CustomWeather, © 2015

See weather overviewHow to use our weather pages